DECAYED

STARLINK-2308, 47985 (Decayed)

Orbit data source: Space-Track

STARLINK-2308, 47985 was a payload satellite owned by SpaceX/Seattle (US) in LEO that was launched on Wed, 24 Mar 2021 UTC via an FALCON 9 launch vehicle from the Air Force Eastern Test Range (AFETR). Payload-class satellites include a variety of spacecraft equipped with specific instruments for various scientific and technological missions. These include communications satellites like Starlink; space stations such as the ISS; scientific satellites like the Hubble; Earth observation satellites from companies like Planet Labs, Umbra, and HawkEye 360; GPS; miniature CubeSats for education and research; and military/defense satellites.

Not visible in the next 10 days
Identifier
47985, 2021-024J
Orbit
Decayed
Country
Flag of USUS
Related business
Manufacturer
SpaceX/Seattle
Mission
Decayed Commercial Communications
Bus & Motor
STARLINK, Unknown motor
Mass
260 kg wet, ~248 kg dry
Launch date (UTC)
2021-03-24 (5 years ago)
Launch vehicle
FALCON 9
Launch site
Air Force Eastern Test Range (AFETR)
Object type
Payload
Rocket body
Debris
Shape & HBR
Box + 1 Pan, 10.1 m
Radar Cross Section
13.562 m², Large (>1 m²)

Expand to show TLE details & history
Last TLE update: 1 year ago

TLE from 1 year ago
0 STARLINK-2308
1 47985U 21024J   25045.54000955  .32349280  12687-4  31501-3 0  9998
2 47985  53.0335 175.9204 0002693 295.9781 148.2001 16.50993845216963
Epoch: 2025-02-14T12:57Z
TLE epoch observation values (Epoch: 2025-02-14T12:57:36.825Z)
Latitude
52.80375°
Longitude
-82.89112°
Altitude
144.597 km
Speed
7.825 km/s
True Right ascension
17h 05m 15s
True Declination
52° 37' 21"
Sunlit
Object was in daylight at epoch
Visualization orbit readout
Latitude
Unknown
Longitude
Unknown
Altitude
Unknown
Speed
Unknown
Apparent Right ascension
Unknown
Apparent Declination
Unknown
Sunlit
N/A
Visualization observer readout
Local Sidereal Time
11:47:19
Azimuth
Unknown
Elevation
Unknown
Doppler factor
Unknown
Orbital elements
Apogee altitude
138.765 km
Perigee altitude
135.256 km
Semi-major axis
6,515.148 km
Eccentricity
0.00027
Inclination
53.0335°
RAAN
175.9204°
Arg. of periapsis
295.9781°
True anomaly
148.21636°
Mean anomaly
148.2001°
Eccentric anomaly
148.20823°
Mean motion
4.12721 °/min
Orbital period
87.23 mins
BSTAR
0.00031501
Loading maneuver chart data...
Computing Atmospheric mass density...

Documentation

Showing up to 5 results
|